"Pseudo-MPEC" for P22oOfK

Created 2026 Aug 11 13:35:15 UT using Find_Orb

Click here for an explanation of pseudo-MPECs

 
 Astrometry: 
     P22oOfK*0C2026 08 04.58571201 26 37.836-33 26 00.18   ~84Fo 20.50wXNEOCPF52
     P22oOfK 0C2026 08 04.59508001 26 37.217-33 25 47.64   ~84Fo 20.44wXNEOCPF52
     P22oOfK 0C2026 08 04.60437701 26 36.584-33 25 35.11   ~84Fo 20.52wXNEOCPF52
     P22oOfK 0C2026 08 04.61373101 26 35.945-33 25 22.37   ~84Fo 20.35wXNEOCPF52

Station data:
(F52) Pan-STARRS 2, Haleakala  (N20.707382 W156.255910)  US/Hawaii.
   Observers J. Herman, T. Lowe, P. Minguez, A. Schultz, I. Smith. Measurers
   K. Chambers, T. de Boer, J. Fairlamb, H. Gao, M. Huber, C.-C. Lin, E.
   Magnier, Y. Ramanjooloo, R. Wainscoat, R. Weryk. 1.8-m Ritchey-Chrétien +
   CCD.

Orbital elements:  P22oOfK
   Perihelion 2026 Oct 17.559952 +/- 57.4 TT = 13:26:19.8 (JD 2461331.059952)
Epoch 2026 Aug  5.0 TT = JDT 2461257.5   Earth MOID: 0.0622      AutoNEOCP
M 326.755553068 +/- 51              (J2000 ecliptic)
n   0.451936765 +/- 0.423           Peri.   84.605306 +/- 80
a   1.681709331 +/- 1.05            Node   330.004386 +/- 33
e   0.56604663 +/- 0.257            Incl.   57.526919 +/- 21
P   2.181/796.557d         H 20.23  G  0.15   U 12.2  SR
q 0.729783429 +/- 0.366    Q 2.633635233 +/- 33.7
From 4 observations 2026 Aug. 4 (40.3 min); mean residual 0".05
Residuals in arcseconds: 
260804 F52  .06-  .03+    260804 F52  .02+  .04-    
260804 F52  .08+  .02-    260804 F52  .04-  .03+    

Ephemerides (geocentric):
Date (UTC) HH   RA             Dec           delta  r     elong  mag " sig PA
---- --------  ------------   ------------  ------ ------ -----  --- --------
2026 08 11 14  01 14 11.941   -29 21 30.14  .24498 1.1727 125.5 19.2  54d  63
2026 08 11 15  01 14 04.516   -29 19 15.03  .24422 1.1723 125.5 19.2  54d  63
2026 08 11 16  01 13 57.040   -29 16 59.03  .24345 1.1719 125.6 19.2  54d  63
2026 08 11 17  01 13 49.514   -29 14 42.14  .24269 1.1716 125.6 19.2  55d  63
2026 08 11 18  01 13 41.936   -29 12 24.36  .24192 1.1712 125.7 19.2  55d  63
2026 08 11 19  01 13 34.306   -29 10 05.68  .24116 1.1708 125.7 19.2  55d  63
2026 08 11 20  01 13 26.624   -29 07 46.08  .24039 1.1704 125.8 19.2  56d  63
2026 08 11 21  01 13 18.889   -29 05 25.56  .23963 1.1701 125.9 19.2  56d  63
2026 08 11 22  01 13 11.101   -29 03 04.10  .23886 1.1697 125.9 19.2  56d  63
2026 08 11 23  01 13 03.259   -29 00 41.71  .23810 1.1693 126.0 19.2  56d  64
2026 08 12 00  01 12 55.364   -28 58 18.37  .23733 1.1689 126.0 19.2  57d  64
2026 08 12 01  01 12 47.414   -28 55 54.07  .23657 1.1685 126.1 19.1  57d  64
2026 08 12 02  01 12 39.409   -28 53 28.80  .23581 1.1682 126.2 19.1  57d  64
2026 08 12 03  01 12 31.349   -28 51 02.55  .23504 1.1678 126.2 19.1  57d  64
2026 08 12 04  01 12 23.233   -28 48 35.32  .23428 1.1674 126.3 19.1  57d  64
2026 08 12 05  01 12 15.061   -28 46 07.08  .23352 1.1670 126.3 19.1  57d  64
2026 08 12 06  01 12 06.833   -28 43 37.85  .23275 1.1666 126.4 19.1  57d  64
2026 08 12 07  01 11 58.547   -28 41 07.59  .23199 1.1663 126.5 19.1  57d  65
2026 08 12 08  01 11 50.204   -28 38 36.31  .23123 1.1659 126.5 19.1  57d  65
2026 08 12 09  01 11 41.803   -28 36 03.99  .23047 1.1655 126.6 19.1  57d  65
2026 08 12 10  01 11 33.344   -28 33 30.62  .22970 1.1651 126.6 19.1  57d  65
2026 08 12 11  01 11 24.825   -28 30 56.19  .22894 1.1647 126.7 19.1  58d  65
2026 08 12 12  01 11 16.247   -28 28 20.70  .22818 1.1644 126.8 19.1  58d  65
2026 08 12 13  01 11 07.609   -28 25 44.12  .22742 1.1640 126.8 19.0  58d  65
2026 08 12 14  01 10 58.911   -28 23 06.45  .22666 1.1636 126.9 19.0  58d  65
2026 08 12 15  01 10 50.152   -28 20 27.69  .22590 1.1632 127.0 19.0  58d  65
2026 08 12 16  01 10 41.331   -28 17 47.80  .22514 1.1628 127.0 19.0  58d  65
2026 08 12 17  01 10 32.449   -28 15 06.80  .22438 1.1625 127.1 19.0  58d  65
2026 08 12 18  01 10 23.504   -28 12 24.66  .22362 1.1621 127.2 19.0  58d  65
2026 08 12 19  01 10 14.496   -28 09 41.37  .22286 1.1617 127.2 19.0  58d  65
2026 08 12 20  01 10 05.424   -28 06 56.92  .22210 1.1613 127.3 19.0  59d  65
2026 08 12 21  01 09 56.289   -28 04 11.30  .22134 1.1609 127.3 19.0  59d  65
2026 08 12 22  01 09 47.089   -28 01 24.49  .22058 1.1606 127.4 19.0  59d  65
2026 08 12 23  01 09 37.824   -27 58 36.49  .21982 1.1602 127.5 19.0  59d  65
2026 08 13 00  01 09 28.493   -27 55 47.29  .21906 1.1598 127.5 18.9  59d  65
2026 08 13 01  01 09 19.096   -27 52 56.86  .21830 1.1594 127.6 18.9  59d  65
2026 08 13 02  01 09 09.632   -27 50 05.19  .21754 1.1590 127.7 18.9  59d  65
2026 08 13 03  01 09 00.101   -27 47 12.29  .21679 1.1587 127.7 18.9  59d  65
2026 08 13 04  01 08 50.502   -27 44 18.12  .21603 1.1583 127.8 18.9  59d  65
2026 08 13 05  01 08 40.835   -27 41 22.67  .21527 1.1579 127.9 18.9  59d  65
2026 08 13 06  01 08 31.098   -27 38 25.94  .21451 1.1575 127.9 18.9  60d  65
2026 08 13 07  01 08 21.291   -27 35 27.91  .21376 1.1572 128.0 18.9  60d  65
2026 08 13 08  01 08 11.415   -27 32 28.57  .21300 1.1568 128.1 18.9  60d  65
2026 08 13 09  01 08 01.467   -27 29 27.90  .21224 1.1564 128.1 18.9  60d  65
2026 08 13 10  01 07 51.448   -27 26 25.89  .21149 1.1560 128.2 18.9  60d  65
2026 08 13 11  01 07 41.356   -27 23 22.51  .21073 1.1556 128.3 18.8  60d  65
2026 08 13 12  01 07 31.192   -27 20 17.77  .20998 1.1553 128.4 18.8  60d  65
2026 08 13 13  01 07 20.955   -27 17 11.64  .20922 1.1549 128.4 18.8  60d  65